sat.trackr.live / text

‹ back to catalog

STARLINK-3232

NORAD 50809 · 2022-001G

PAYLOAD ACTIVE UNKNOWN

§ Identity

Operator
Country
US
Launch date
2022-01-06
Launch site
AFETR
Launch vehicle
Mass (kg)
RCS (m²)

Purposes: comms

External: N2YO · Heavens-Above · Gunter

§ Orbital elements

Epoch: 2026-09-19T19:34:40.028448Z

Period
94.01 min
Inclination
53.1612°
Eccentricity
0.0001159
Mean motion
15.31703650 rev/d
Perigee alt
469.9 km
Apogee alt
471.5 km
Semi-major
6,848.9 km
B*
3.9690e-5
RAAN
354.9640°
Arg perigee
71.9824°
Mean anomaly
288.1303°
Rev number
26,002

§ Raw data

STARLINK-32321 50809U 22001G   26262.81574107  .00000867  00000+0  39690-4 0  99992 50809  53.1612 354.9640 0001159  71.9824 288.1303 15.31703650260026

JSON: /api/v1/satellites/50809 · /tle

For live sub-satellite position, see the globe view (requires WebGL).

§ Visibility from observer

Set your observer location to see the next 7 days of passes ≥ 10°. The values pass through the URL so the page stays shareable.

No JS? Fill the form by hand. The geolocation button needs JavaScript.